Location: Newark
(49.3000°N, 9.4667°E)
Time: 23:33:19
(UTC+00:00)

Transit 2A Rocket - Pass Details

Date: 26 May 2019
Orbit: 586 x 917 km, 66.7° (Epoch: 18 June)

Event Time Altitude Azimuth Distance (km) Brightness Sun altitude
Rises 22:54:19 0° 324° (NW) 3,490 9.4 -19.3°
Reaches altitude 10° 22:57:13 10° 334° (NNW) 2,507 8.7 -19.3°
Maximum altitude 23:02:17 30° 35° (NE) 1,431 6.9 -19.4°
Drops below altitude 10° 23:06:58 10° 97° (E) 2,313 7.4 -19.4°
Enters shadow 23:09:28 - 108° (ESE) 3,155 8.0 -19.5°
